Eureka, Nunavut

5:13 AM CDT on July 21, 2017 (GMT -0500)
Eureka

Weather History for CWEU - November, 2011

Change the Weather History Date:

Sunday, November 6, 2011

  Actual Average Record
Temperature  
Mean Temperature -30 °F -  
Max Temperature -28 °F -20 °F 17 °F (2013)
Min Temperature -31 °F -33 °F -41 °F (2007)
Degree Days  
Heating Degree Days 94    
Moisture  
Dew Point -38 °F    
Average Humidity 61    
Maximum Humidity 68    
Minimum Humidity 42    
Precipitation  
Precipitation 0.00 in 0.00 in - ()
Sea Level Pressure  
Sea Level Pressure 29.92 in    
Wind  
Wind Speed 1 mph ()    
Max Wind Speed 5 mph    
Max Gust Speed -    
Visibility 15.0 miles    
Events Snow    
Averages and records for this station are not official NWS values.
T = Trace of Precipitation, MM = Missing Value Source: Averaged Metar Reports

Daily Weather History Graph

Daily Weather History Graph

Search for Another Location

Airport or City:

Trip Planner

Search our weather history database for the weather conditions in past years. The results will help you decide how hot, cold, wet, or windy it might be!

Date:

Astronomy

Dec. 31, 1969 Rise Set
Actual Time Sun does not set Sun does not set
Civil Twilight 11:22 AM CST 11:59 AM CST
Nautical Twilight 6:55 AM CST 3:56 PM CST
Astronomical Twilight 4:33 AM CST 6:16 PM CST
Moon 12:47 PM CST (11/6) 3:19 AM CST (11/6)
Length of Visible Light 0h 36m
Length of Day
0h 00m
Waxing Gibbous, 86% of the Moon is Illuminated
Nov 6
Waxing Gibbous
Nov 10
Full
Nov 18
Last Quarter
Nov 25
New
Dec 2
First Quarter

Hourly Weather History & Observations

Time (CST) Temp. Windchill Dew Point Humidity Pressure Visibility Wind Dir Wind Speed Gust Speed Precip Events Conditions
1:00 AM -28 °F - -36 °F 48% 29.95 in 15 mi Calm Calm - - Snow Snow
1:00 AM -29.2 °F - -36.4 °F 68% 29.95 in 15.0 mi Calm Calm - N/A   Clear
2:00 AM -27.4 °F - -36.4 °F 62% 29.94 in 15.0 mi Calm Calm - N/A   Clear
3:00 AM -27.4 °F - -36.4 °F 62% 29.94 in 15.0 mi Calm Calm - N/A   Clear
4:00 AM -29.2 °F - -40.0 °F 56% 29.94 in 15.0 mi Calm Calm - N/A   Clear
5:00 AM -27.4 °F - -36.4 °F 62% 29.94 in 15.0 mi Calm Calm - N/A   Clear
6:00 AM -28 °F - -37 °F 42% 29.94 in 15 mi SE 4.6 mph - - Snow Snow
6:00 AM -27.4 °F -41.9 °F -36.4 °F 62% 29.94 in 15.0 mi SE 4.6 mph - N/A   Clear
7:00 AM -29.2 °F - -38.2 °F 62% 29.93 in 15.0 mi Calm Calm - N/A   Clear
8:00 AM -27.4 °F - -36.4 °F 62% 29.92 in 15.0 mi Calm Calm - N/A   Clear
9:00 AM -29.2 °F - -36.4 °F 68% 29.91 in 15.0 mi Calm Calm - N/A   Clear
10:00 AM -29.2 °F - -38.2 °F 62% 29.91 in 15.0 mi Calm Calm - N/A   Clear
11:00 AM -29.2 °F - -38.2 °F 62% 29.91 in 15.0 mi Calm Calm - N/A   Partly Cloudy
12:00 PM -31 °F - -40 °F 43% 29.91 in 15 mi East 2.3 mph - - Snow Snow
12:00 PM -31.0 °F - -40.0 °F 62% 29.91 in 15.0 mi East 2.3 mph - N/A   Partly Cloudy
1:00 PM -31.0 °F - -38.2 °F 68% 29.91 in 15.0 mi Calm Calm - N/A   Partly Cloudy
2:00 PM -31.0 °F - -38.2 °F 68% 29.92 in 15.0 mi Calm Calm - N/A   Clear
3:00 PM -31.0 °F - -40.0 °F 62% 29.92 in 15.0 mi Calm Calm - N/A   Clear
4:00 PM -29.2 °F - -38.2 °F 62% 29.92 in 15.0 mi Calm Calm - N/A   Clear
5:00 PM -31.0 °F - -40.0 °F 62% 29.92 in 15.0 mi Calm Calm - N/A   Clear
6:00 PM -30 °F - -39 °F 43% 29.91 in 15 mi Calm Calm - - Snow Snow
6:00 PM -31.0 °F - -38.2 °F 68% 29.91 in 15.0 mi Calm Calm - N/A   Clear
7:00 PM -31.0 °F - -40.0 °F 62% 29.92 in 15.0 mi East 2.3 mph - N/A   Clear
8:00 PM -31.0 °F - -38.2 °F 68% 29.92 in 15.0 mi Calm Calm - N/A   Clear
9:00 PM -31.0 °F - -38.2 °F 68% 29.92 in 15.0 mi East 2.3 mph - N/A   Clear